Location: Unspecified
(0.0000°N, 0.0000°E)
Time: 23:52:44
(UTC+00:00)

S-56A Canister/Altair - Pass Details

Date: 01 October 2020
Orbit: 633 x 2499 km, 38.9° (Epoch: 28 October)

Event Time Altitude Azimuth Distance (km) Brightness Sun altitude
Rises 13:29:04 0° 278° (W) 5,633 12.3 64.9°
Reaches altitude 10° 13:34:40 10° 296° (WNW) 4,892 12.1 63.5°
Maximum altitude 13:42:54 17° 332° (NNW) 4,520 11.8 61.5°
Drops below altitude 10° 13:51:34 10° 8° (N) 5,134 11.8 59.3°
Sets 13:57:51 0° 26° (NNE) 6,018 11.9 57.7°
